CW2360 Weather Reports


time (UTC)temp
C
wind
direction
speed
KPH
gust
KPH
rain 1hr
cm
rain 24hr
cm
rain mn
cm
humidity
%
barometer
mb
20260507154552 16 288 19.3 30.6 0.00 0.00 0.00 38 1011.2
20260507153051 15 286 12.9 27.4 0.00 0.00 0.00 39 1011.2
20260507151544 15 360 16.1 30.6 0.00 0.00 0.00 41 1011.4
20260507150040 14 310 19.3 27.4 0.00 0.00 0.00 42 1011.3
20260507144536 12 281 14.5 24.1 0.00 0.00 0.00 49 1011.4
20260507143032 10 360 8.0 12.9 0.00 0.00 0.00 59 1011.4
20260507141527 8 290 4.8 9.7 0.00 0.00 0.00 62 1011.5
20260507140024 7 234 3.2 8.0 0.00 0.00 0.00 62 1011.5
20260507134522 7 213 1.6 4.8 0.00 0.00 0.00 62 1011.5
20260507133016 6 213 0.0 3.2 0.00 0.00 0.00 69 1011.5
20260507131514 5 213 0.0 3.2 0.00 0.00 0.00 73 1011.4
20260507130013 5 213 1.6 6.4 0.00 0.00 0.00 76 1011.1
20260507124511 3 213 1.6 4.8 0.00 0.00 0.00 78 1011.1
20260507123011 3 213 0.0 3.2 0.00 0.00 0.00 81 1011.0
20260507121507 1 213 1.6 3.2 0.00 0.00 0.00 81 1011.0
20260507120032 1 216 0.0 3.2 0.00 0.00 0.00 80 1010.8
20260507114606 1 216 0.0 3.2 0.00 0.00 0.00 79 1010.8
20260507113056 2 216 0.0 3.2 0.00 0.00 0.00 79 1010.5
20260507111556 2 216 0.0 1.6 0.00 0.00 0.00 79 1010.5
20260507110054 2 216 0.0 0.0 0.00 0.00 0.00 78 1010.6
20260507104553 2 216 0.0 3.2 0.00 0.00 0.00 77 1010.7
20260507103054 2 216 0.0 0.0 0.00 0.00 0.00 75 1010.5
20260507101549 2 216 3.2 4.8 0.00 0.00 0.00 73 1010.5
20260507100044 3 216 1.6 4.8 0.00 0.00 0.00 71 1010.8
20260507094542 4 216 0.0 3.2 0.00 0.00 0.00 69 1010.7
20260507093042 3 216 1.6 4.8 0.00 0.00 0.00 70 1010.7
20260507091540 3 216 0.0 4.8 0.00 0.00 0.00 69 1011.0
20260507090041 4 216 1.6 4.8 0.00 0.00 0.00 68 1011.1
20260507084534 5 216 0.0 1.6 0.00 0.00 0.00 66 1011.1
20260507083038 5 216 0.0 1.6 0.00 0.00 0.00 65 1011.1
20260507081531 5 216 0.0 3.2 0.00 0.00 0.00 65 1011.6
20260507080029 5 216 0.0 1.6 0.00 0.00 0.00 64 1011.7
20260507074529 5 216 0.0 6.4 0.00 0.00 0.00 64 1011.9
20260507073026 5 217 3.2 12.9 0.00 0.00 0.00 65 1012.2
20260507071531 5 277 3.2 8.0 0.00 0.00 0.00 65 1012.3
20260507070024 5 279 1.6 4.8 0.00 0.00 0.00 66 1012.4
20260507064522 6 279 4.8 11.3 0.00 0.00 0.00 66 1012.5
20260507063021 6 294 1.6 8.0 0.00 0.00 0.00 67 1012.7
20260507061520 6 296 3.2 8.0 0.00 0.00 0.00 66 1012.8
20260507060018 6 281 3.2 11.3 0.00 0.00 0.00 65 1012.9
20260507054517 6 262 6.4 14.5 0.00 0.00 0.00 66 1013.2
20260507053016 6 272 0.0 8.0 0.00 0.00 0.00 65 1013.3
20260507051516 6 225 1.6 20.9 0.00 0.00 0.00 64 1013.4
20260507050014 6 200 9.7 20.9 0.00 0.00 0.00 63 1013.5
20260507044513 7 233 8.0 22.5 0.00 0.00 0.00 61 1013.5
20260507043013 7 223 9.7 19.3 0.00 0.00 0.00 59 1013.6
20260507041512 7 225 8.0 22.5 0.00 0.00 0.00 55 1013.7
20260507040013 7 221 9.7 22.5 0.00 0.00 0.00 53 1013.9
20260507034512 7 239 11.3 19.3 0.00 0.00 0.00 52 1014.1
20260507033010 7 236 8.0 16.1 0.00 0.00 0.00 51 1014.1
20260507031509 7 232 8.0 17.7 0.00 0.00 0.00 51 1014.2
20260507030011 8 225 6.4 11.3 0.00 0.00 0.00 49 1014.3
20260507024508 8 227 4.8 11.3 0.00 0.00 0.00 48 1014.4
20260507023007 9 223 4.8 12.9 0.00 0.00 0.00 46 1014.3
20260507021511 9 217 6.4 20.9 0.00 0.00 0.00 44 1014.3
20260507020006 10 217 4.8 14.5 0.00 0.00 0.00 43 1014.3
20260507014507 11 219 6.4 16.1 0.00 0.00 0.00 40 1014.4
20260507013005 12 219 4.8 12.9 0.00 0.00 0.00 35 1014.5
20260507011504 12 223 4.8 17.7 0.00 0.00 0.00 34 1014.7
20260507010003 12 256 1.6 16.1 0.00 0.00 0.00 33 1014.7
20260507004502 12 322 6.4 17.7 0.00 0.00 0.00 30 1014.7
20260507003005 12 248 11.3 20.9 0.00 0.00 0.00 30 1014.9
20260507001501 12 360 8.0 19.3 0.00 0.00 0.00 31 1015.1
20260506234603 12 293 16.1 22.5 0.00 0.00 0.00 29 1015.3
20260506233057 12 277 11.3 24.1 0.00 0.00 0.00 30 1015.5
20260506231554 11 290 11.3 19.3 0.00 0.00 0.00 31 1015.7
20260506230054 11 287 9.7 20.9 0.00 0.00 0.00 32 1015.8
20260506224552 11 279 11.3 19.3 0.00 0.00 0.00 31 1015.9
20260506223053 11 287 8.0 19.3 0.00 0.00 0.00 33 1016.2
20260506221550 11 291 4.8 17.7 0.00 0.00 0.00 32 1016.4
20260506220058 12 284 4.8 19.3 0.00 0.00 0.00 32 1016.5
20260506214548 11 295 8.0 17.7 0.00 0.00 0.00 33 1016.8
20260506213046 11 283 8.0 25.7 0.00 0.00 0.00 33 1017.1
20260506211546 11 281 9.7 19.3 0.00 0.00 0.00 34 1017.3
20260506210048 11 284 6.4 16.1 0.00 0.00 0.00 33 1017.6
20260506204543 11 220 11.3 19.3 0.00 0.00 0.00 33 1018.0
20260506203117 10 282 8.0 20.9 0.00 0.00 0.00 37 1018.3
20260506201541 10 286 9.7 25.7 0.00 0.00 0.00 37 1018.5
20260506200046 10 251 8.0 27.4 0.00 0.00 0.00 36 1018.7
20260506194538 10 256 4.8 22.5 0.00 0.00 0.00 38 1019.0
20260506193036 10 277 8.0 22.5 0.00 0.00 0.00 39 1019.1
20260506191536 9 360 12.9 24.1 0.00 0.00 0.00 38 1019.1
20260506190044 9 297 9.7 19.3 0.00 0.00 0.00 39 1019.4
20260506184532 8 360 11.3 20.9 0.00 0.00 0.00 38 1019.4
20260506183030 9 234 4.8 14.5 0.00 0.00 0.00 41 1019.7
20260506181527 8 355 4.8 12.9 0.00 0.00 0.00 43 1019.7
20260506180024 8 298 11.3 17.7 0.00 0.00 0.00 42 1019.9
20260506174522 8 284 8.0 22.5 0.00 0.00 0.00 43 1019.9
20260506173021 7 340 8.0 16.1 0.00 0.00 0.00 45 1020.1
20260506171517 7 360 4.8 24.1 0.00 0.00 0.00 44 1020.3
20260506170012 7 360 3.2 16.1 0.00 0.00 0.00 45 1020.2
20260506164514 7 293 4.8 14.5 0.00 0.00 0.00 44 1020.3
20260506163017 6 286 8.0 17.7 0.00 0.00 0.00 47 1020.3
20260506161512 6 290 4.8 17.7 0.00 0.00 0.00 44 1020.3